TimeEDT,TemperatureF,Dew PointF,Humidity,Sea Level PressureIn,VisibilityMPH,Wind Direction,Wind SpeedMPH,Gust SpeedMPH,PrecipitationIn,Events,Conditions,WindDirDegrees,DateUTC
12:15 AM,71.6,62.6,73,29.91,10.0,SSE,9.2,-,N/A,,Clear,150,2013-05-20 04:15:00
12:35 AM,71.6,62.6,73,29.91,10.0,SSE,9.2,-,N/A,,Clear,150,2013-05-20 04:35:00
12:55 AM,71.2,62.6,74,29.91,10.0,SSE,9.2,-,N/A,,Clear,160,2013-05-20 04:55:00
1:15 AM,70.9,62.6,75,29.91,7.0,SSE,8.1,-,N/A,,Clear,160,2013-05-20 05:15:00
1:35 AM,71.2,62.6,74,29.90,10.0,SSE,9.2,-,N/A,,Mostly Cloudy,160,2013-05-20 05:35:00
1:55 AM,71.4,62.6,74,29.91,10.0,South,8.1,-,N/A,,Mostly Cloudy,170,2013-05-20 05:55:00
2:15 AM,71.2,62.8,75,29.91,10.0,South,8.1,-,N/A,,Mostly Cloudy,170,2013-05-20 06:15:00
2:35 AM,71.4,63.1,75,29.91,10.0,South,9.2,-,N/A,,Overcast,170,2013-05-20 06:35:00
2:55 AM,70.7,63.5,78,29.90,10.0,SSE,6.9,-,N/A,,Scattered Clouds,160,2013-05-20 06:55:00
3:15 AM,70.2,63.5,79,29.89,7.0,South,6.9,-,N/A,,Clear,170,2013-05-20 07:15:00
3:35 AM,69.6,63.7,81,29.90,7.0,South,6.9,-,N/A,,Clear,180,2013-05-20 07:35:00
4:15 AM,70.0,64.9,84,29.90,7.0,South,5.8,-,N/A,,Clear,180,2013-05-20 08:15:00
4:35 AM,69.4,64.8,85,29.91,7.0,South,5.8,-,N/A,,Clear,170,2013-05-20 08:35:00
4:55 AM,68.9,65.1,88,29.90,7.0,South,8.1,-,N/A,,Clear,170,2013-05-20 08:55:00
5:35 AM,69.8,66.2,88,29.89,7.0,South,9.2,-,N/A,,Scattered Clouds,170,2013-05-20 09:35:00
5:55 AM,69.8,66.2,88,29.89,7.0,South,8.1,-,N/A,,Scattered Clouds,170,2013-05-20 09:55:00
6:15 AM,69.3,66.2,90,29.89,5.0,SSE,8.1,-,N/A,,Clear,160,2013-05-20 10:15:00
6:35 AM,68.9,66.2,91,29.91,4.0,South,5.8,-,N/A,,Mostly Cloudy,180,2013-05-20 10:35:00
6:55 AM,69.4,66.7,91,29.92,4.0,SSW,8.1,-,N/A,,Overcast,200,2013-05-20 10:55:00
7:15 AM,70.3,67.3,90,29.93,4.0,SSW,10.4,-,N/A,,Mostly Cloudy,210,2013-05-20 11:15:00
7:35 AM,71.1,67.5,88,29.93,4.0,South,9.2,-,N/A,,Mostly Cloudy,190,2013-05-20 11:35:00
7:55 AM,71.1,67.3,88,29.94,5.0,SSW,9.2,-,N/A,,Scattered Clouds,200,2013-05-20 11:55:00
8:15 AM,72.1,67.8,86,29.94,5.0,SSW,11.5,16.1,N/A,,Haze,210,2013-05-20 12:15:00
8:35 AM,72.7,67.6,84,29.94,5.0,SSW,11.5,-,N/A,,Haze,210,2013-05-20 12:35:00
8:55 AM,73.4,67.8,83,29.94,7.0,SW,11.5,20.7,N/A,,Mostly Cloudy,220,2013-05-20 12:55:00
9:15 AM,74.5,67.6,79,29.94,7.0,SW,12.7,20.7,N/A,,Scattered Clouds,220,2013-05-20 13:15:00
9:35 AM,75.2,67.5,77,29.94,7.0,SW,13.8,-,N/A,,Mostly Cloudy,220,2013-05-20 13:35:00
10:15 AM,76.3,67.3,74,29.93,10.0,SW,17.3,20.7,N/A,,Mostly Cloudy,230,2013-05-20 14:15:00
10:35 AM,76.5,66.9,72,29.92,7.0,SSW,11.5,-,N/A,,Overcast,210,2013-05-20 14:35:00
10:55 AM,77.2,67.1,71,29.92,7.0,SSW,15.0,18.4,N/A,,Mostly Cloudy,210,2013-05-20 14:55:00
11:35 AM,77.7,66.4,68,29.94,10.0,SW,17.3,-,N/A,,Overcast,220,2013-05-20 15:35:00
11:55 AM,77.9,66.6,68,29.95,7.0,SW,16.1,19.6,N/A,,Overcast,220,2013-05-20 15:55:00
12:15 PM,78.6,66.4,66,29.94,7.0,SW,13.8,-,N/A,,Mostly Cloudy,220,2013-05-20 16:15:00
12:35 PM,79.9,66.0,62,29.93,7.0,SSW,13.8,-,N/A,,Clear,210,2013-05-20 16:35:00
12:55 PM,80.4,65.7,61,29.93,7.0,South,13.8,18.4,N/A,,Scattered Clouds,180,2013-05-20 16:55:00
1:15 PM,81.1,64.9,58,29.92,7.0,South,11.5,19.6,N/A,,Mostly Cloudy,190,2013-05-20 17:15:00
1:35 PM,81.9,65.5,57,29.91,10.0,South,12.7,19.6,N/A,,Mostly Cloudy,190,2013-05-20 17:35:00
2:15 PM,82.8,64.4,54,29.91,7.0,South,13.8,21.9,N/A,,Scattered Clouds,190,2013-05-20 18:15:00
2:55 PM,82.9,63.0,51,29.90,10.0,SSW,23.0,-,N/A,,Mostly Cloudy,210,2013-05-20 18:55:00
3:15 PM,84.0,63.1,49,29.89,7.0,SSW,18.4,24.2,N/A,,Mostly Cloudy,200,2013-05-20 19:15:00
3:35 PM,83.1,62.8,50,29.89,10.0,SSW,17.3,23.0,N/A,,Scattered Clouds,210,2013-05-20 19:35:00
3:55 PM,84.4,62.4,47,29.89,7.0,SW,17.3,26.5,N/A,,Scattered Clouds,220,2013-05-20 19:55:00
4:15 PM,83.5,62.6,49,29.91,10.0,SW,20.7,28.8,N/A,,Mostly Cloudy,220,2013-05-20 20:15:00
4:35 PM,82.4,62.4,51,29.90,7.0,SSW,15.0,19.6,N/A,,Scattered Clouds,200,2013-05-20 20:35:00
4:55 PM,81.9,62.6,52,29.87,7.0,South,15.0,18.4,N/A,,Scattered Clouds,190,2013-05-20 20:55:00
5:15 PM,81.3,62.8,53,29.89,7.0,SSW,19.6,23.0,N/A,,Scattered Clouds,210,2013-05-20 21:15:00
5:35 PM,82.0,62.8,52,29.89,10.0,SW,16.1,24.2,N/A,,Clear,220,2013-05-20 21:35:00
5:55 PM,82.4,62.4,51,29.90,7.0,SSW,19.6,23.0,N/A,,Scattered Clouds,200,2013-05-20 21:55:00
6:15 PM,82.4,62.8,51,29.89,10.0,SW,18.4,24.2,N/A,,Mostly Cloudy,220,2013-05-20 22:15:00
6:35 PM,82.4,61.5,49,29.87,7.0,SSW,21.9,26.5,N/A,,Scattered Clouds,210,2013-05-20 22:35:00
6:55 PM,81.9,61.7,50,29.87,7.0,SSW,18.4,23.0,N/A,,Scattered Clouds,210,2013-05-20 22:55:00
7:15 PM,81.9,61.3,50,29.86,10.0,SW,18.4,24.2,N/A,,Scattered Clouds,220,2013-05-20 23:15:00
7:35 PM,81.1,61.5,51,29.86,10.0,SW,13.8,20.7,N/A,,Scattered Clouds,220,2013-05-20 23:35:00
7:55 PM,80.6,62.1,53,29.86,10.0,SSW,13.8,-,N/A,,Clear,210,2013-05-20 23:55:00
8:15 PM,80.1,62.2,54,29.85,7.0,SSW,10.4,-,N/A,,Clear,200,2013-05-21 00:15:00
8:35 PM,79.3,62.2,56,29.84,7.0,South,8.1,-,N/A,,Clear,190,2013-05-21 00:35:00
8:55 PM,78.3,62.6,58,29.84,7.0,South,9.2,-,N/A,,Clear,170,2013-05-21 00:55:00
9:15 PM,77.2,62.8,61,29.84,7.0,SSW,8.1,-,N/A,,Clear,200,2013-05-21 01:15:00
9:35 PM,76.8,63.0,62,29.85,10.0,South,8.1,-,N/A,,Clear,190,2013-05-21 01:35:00
9:55 PM,75.6,63.1,65,29.85,10.0,South,4.6,-,N/A,,Clear,170,2013-05-21 01:55:00
10:15 PM,73.4,63.5,71,29.85,7.0,South,5.8,-,N/A,,Clear,170,2013-05-21 02:15:00
10:35 PM,73.8,63.3,70,29.87,7.0,South,8.1,-,N/A,,Clear,190,2013-05-21 02:35:00
10:55 PM,74.5,63.1,68,29.87,10.0,South,6.9,-,N/A,,Clear,190,2013-05-21 02:55:00
11:15 PM,73.4,63.3,71,29.85,7.0,South,5.8,-,N/A,,Clear,170,2013-05-21 03:15:00
11:35 PM,72.7,63.3,72,29.87,10.0,SSW,6.9,-,N/A,,Clear,200,2013-05-21 03:35:00
11:55 PM,73.4,63.5,71,29.86,7.0,South,9.2,-,N/A,,Clear,190,2013-05-21 03:55:00